Preview of NWS' New Version of Forecast
This preview is not operational and should not be used for support decisions.

Regional Weather Roundup (RWR)

Issued by National Weather Service (NWS)

                            
000
ASPQ40 PGUM 162110
RWRPQ 
WEATHER ROUNDUP FOR THE MARIANAS AND MICRONESIA
NATIONAL WEATHER SERVICE TIYAN GU
700 AM CHST WED APR 17 2019

GUZ001>004-162200-
MARIANA ISLANDS-
  
CITY           SKY/WX    TMP DP  RH WIND       PRES   REMARKS
GUAM AIRPORT   MOSUNNY   81  72  74 E10       29.95R                  
ANDERSEN AFB   MOSUNNY   79  73  83 E13       29.94R                  
ROTA AIRPORT   MOSUNNY   77  73  88 E14       29.93R                  
TINIAN AP      MOSUNNY   81  73  78 E6        29.92                   
SAIPAN AP      PTSUNNY   79  73  83 E15       29.94R                  

$$

PMZ161-162200-
REPUBLIC OF PALAU-
  
CITY           SKY/WX    TMP DP  RH WIND       PRES   REMARKS
KOROR AP       NOT AVBL                                               
KOROR WSO      NOT AVBL                                               

$$

PMZ171>174-162200-
FEDERATED STATES OF MICRONESIA-
  
CITY           SKY/WX    TMP DP  RH WIND       PRES   REMARKS
YAP AIRPORT    MOCLDY    77  75  94 VRB3      29.85R                  
CHUUK AP       MOSUNNY   84  75  74 NE10      29.85R HX  92           
POHNPEI AP     NOT AVBL                                               
POHNPEI WSO    CLOUDY    79  75  89 E12       29.90                   
KOSRAE AP      NOT AVBL                                               

$$

PMZ181-162200-
REPUBLIC OF THE MARSHALL ISLANDS-
  
CITY           SKY/WX    TMP DP  RH WIND       PRES   REMARKS
KWAJALEIN AP   MOSUNNY   84  75  74 E22       29.90R HX  92           
MAJURO AP      PTSUNNY   84  77  79 NE20      29.88  HX  94           
MAJURO WSO     MOSUNNY   84  75  74 E17       29.87R HX  92           

$$